Terminal Aerodrome Forecast
Issued by NWS

Home | Current Version | Previous Version | Text Only | Print | Product List | Glossary On
Versions: 1 2 3 4 5 6 7 8 9 10 11 12 13 14 15 16 17 18 19 20 21 22 23 24 25 26 27 28 29 30 31 32 33 34 35 36 37 38 39 40 41 42 43 44 45 46 47 48 49 50
000
FTUS41 KCTP 300324 AAA
TAFJST
TAF AMD
KJST 300324Z 3003/3024 14006KT P6SM -SHRA OVC040 WS020/20035KT
     FM300800 16008KT P6SM -SHRA OVC025
     FM301000 17009KT P6SM -SHRA OVC018
     FM301500 21010KT P6SM -SHRA VCTS BKN035CB=

USA.gov is the U.S. government's official web portal to all federal, state and local government web resources and services.